weather.gov     
National Weather Service

Regional Weather Roundup
NWS Homepage
This page is being discontinued on March 12, 2014.
The same data is available at this site. Please update your bookmarks.
Thank you, and we apologize for the inconvenience.
Please send an email to SR-SRH.Webmaster@noaa.gov with any concerns.


Current Version
Previous Version:    01  02  03  04  05  06  07  08  09  10  11  12  13  14  15  16  17  18  19  20  21  22  23  24  25  26  
[Printable]
362
ASUS41 KAKQ 250110
RWRAKQ

REGIONAL WEATHER ROUNDUP
NATIONAL WEATHER SERVICE WAKEFIELD VA
900 PM EDT FRI OCT 24 2014

Note: "fair" indicates few or no clouds below 12,000 feet with no
significant weather and/or obstructions to visibility. * = Denotes
station may not report precipitation (e.g., rain,snow,etc.),
thunder or fog.

VAZ042-051-052>054-056-250200-
NORTHERN VIRGINIA

CITY           SKY/WX    TMP DP  RH WIND       PRES   REMARKS
WASH NATIONAL  MOCLDY    63  33  32 NW12      29.94S
DULLES         MOCLDY    56  35  45 NW8       29.95S
FORT BELVOIR   PTCLDY    49  43  80 W7        29.94S
QUANTICO       PTCLDY    51  46  83 NW8       29.95S
FREDERICKSBRG* CLEAR     49  48  95 CALM      29.94S
STAFFORD*      PTCLDY    45  45 100 CALM      29.99R
WARRENTON      PTCLDY    43  43  99 CALM      29.95R
CULPEPER*      PTCLDY    46  43  87 CALM      29.96R
MANASSAS*      PTCLDY    57  37  47 NW5       29.95S
LEESBURG*      MOCLDY    55  37  50 NW6       29.96S
WINCHESTER     PTCLDY    54  30  40 NW7       29.97S
FRONT ROYAL*   PTCLDY    50  36  57 CALM      29.97R
LURAY*         PTCLDY    48  41  76 CALM      29.98R
$$

VAZ048-049-060>072-079>083-250200-
CENTRAL AND SOUTH CENTRAL VIRGINIA...AND NORTH CENTRAL NORTH CAROLINA

CITY           SKY/WX    TMP DP  RH WIND       PRES   REMARKS
RICHMOND       MOCLDY    51  44  77 CALM      29.95S
CHESTERFIELD*    N/A    N/A N/A N/A MISG        N/A
PETERSBURG*    CLEAR     45  44  95 CALM      29.96S
HANOVER        CLEAR     49  47  93 CALM      29.97R
TAPPAHANNOCK*  CLEAR     47  43  84 CALM      29.94F
CHARLOTTSVILLE PTCLDY    56  41  57 CALM      29.95F
ORANGE*        CLEAR     46  43  87 CALM      29.97S
LOUISA*        CLEAR     45  43  93 CALM      29.94S
FARMVILLE*     PTCLDY    48  46  93 CALM      29.95R
CREWE*         PTCLDY    49  47  94 CALM      29.96S
FORT PICKETT*  PTCLDY    51  49  93 CALM      29.96S
LUNENBURG*     PTCLDY    55  51  86 CALM      29.96S
SOUTH HILL*    PTCLDY    50  50 100 CALM      30.02S
LAWRENCEVILLE* PTCLDY    50  49  99 CALM      29.96R
ROANOKE RAPIDS PTCLDY    50  48  93 SW3       29.97R
RALEIGH        PTCLDY    53  49  86 CALM      29.99R
$$

VAZ088>098-250200-
SOUTHEAST VIRGINIA

CITY           SKY/WX    TMP DP  RH WIND       PRES   REMARKS
NORFOLK        CLEAR     60  46  59 CALM      29.94R
VIRGINIA BEACH CLEAR     57  44  62 W7        29.93S
NORFOLK NAVAL  PTCLDY    62  47  57 W5        29.95S
WEST POINT*    CLEAR     49  45  87 CALM      29.96R
NEWPORT NEWS   CLEAR     51  46  83 CALM      29.94S
LANGLEY AFB    CLEAR     52  48  86 W3        29.94S
FORT EUSTIS    PTCLDY    55  47  73 NW2       29.93S
WILLIAMSBURG*  CLEAR     54  48  82 CALM      29.96R
HR EXEC AP*    CLEAR     43  39  87 CALM      29.96S
FRANKLIN*      CLEAR     48  46  93 CALM      29.95S
WAKEFIELD      CLEAR     49  46  90 CALM      29.95S
$$

VAZ020-022-025-037-045-250200-
WEST CENTRAL AND SOUTHWEST VIRGINIA

CITY           SKY/WX    TMP DP  RH WIND       PRES   REMARKS
STAUNTON*      PTCLDY    47  40  76 CALM      29.99S
HOT SPRINGS VA CLEAR     47  30  51 NW15      30.01S
LYNCHBURG      PTCLDY    48  43  82 CALM      29.98S
DANVILLE       PTCLDY    49  46  90 SW3       29.98S
SOUTH BOSTON*  NOT AVBL
MARTINSVILLE   CLEAR     47  47 100 CALM      30.02S
ROANOKE        PTCLDY    58  35  42 NW9       30.02S
BLACKSBURG     CLEAR     54  39  58 W9        30.05S
DUBLIN*        CLEAR     51  40  64 W7        30.07R
MARION*        CLEAR     51  38  60 W9        30.09S
HILLSVILLE*    CLEAR     51  32  47 NW10      30.04F
RICHLANDS*     CLEAR     53  39  59 NW3       30.08S
WISE*          CLEAR     48  37  66 CALM      30.09S
ABINGDON*      CLEAR     47  40  78 CALM      30.08R
$$

MDZ021>025-VAZ099-100-250200-
SOUTHERN MARYLAND AND THE DELMARVA PENINSULA

CITY           SKY/WX    TMP DP  RH WIND       PRES   REMARKS
PATUXENT RIVER MOCLDY    57  41  55 W9        29.93R
BAY BRIDGE APT   N/A     59  37  44 W8        29.92S
LEONARDTOWN    CLEAR     52  41  66 CALM      29.95R
DOVER          PTCLDY    59  41  50 W12       29.86S
GEORGETOWN     CLEAR     57  44  62 W5        29.90S
EASTON         CLEAR     55  45  67 W6        29.95
CAMBRIDGE      CLEAR     52  43  71 CALM      29.91S
SALISBURY      CLEAR     55  46  71 W6        29.91R
OCEAN CITY     CLEAR     57  46  66 W6        29.89S
WALLOPS ISLAND CLEAR     59  46  62 NW8       29.92R
ACCOMACK*      CLEAR     57  45  62 W6        29.92R
$$

NCZ012>017-030>032-250200-
EASTERN NORTH CAROLINA

CITY           SKY/WX    TMP DP  RH WIND       PRES   REMARKS
ELIZABETH CITY CLEAR     56  46  69 W5        29.95R
AHOSKIE*       CLEAR     49  47  94 CALM      29.97R
EDENTON*       CLEAR     54  49  85 CALM      29.95S
CURRITUCK*     CLEAR     55  47  73 CALM      29.95S
KILL DEVIL HLS CLEAR     60  55  83 W3        29.93S
MANTEO         CLEAR     60  54  80 W3        29.95R
CAPE HATTERAS  CLEAR     58  55  90 NW3       29.96R
TARBORO*       PTCLDY    50  49  95 CALM      29.98S
GOLDSBORO      MOCLDY    56  55  94 CALM      29.96S
WASHINGTON     PTCLDY    53  50  89 CALM      29.98R
GREENVILLE     CLEAR     54  52  94 CALM      29.99S FOG
NEW BERN       CLEAR     56  50  80 CALM      29.99R
WILMINGTON     CLEAR     53  51  93 CALM      29.99S
$$

VAZ048-250200-
ELSEWHERE

CITY           SKY/WX    TMP DP  RH WIND       PRES   REMARKS
HARRISBURG PA  MOCLDY    56  39  53 NW12      29.91R
BALTIMORE      MOCLDY    53  37  54 W10       29.92R
ANNAPOLIS      CLEAR     59  35  40 W6        29.92R
ANDREWS AFB    PTCLDY    60  36  41 NW12      29.92S
WILMINGTON DE  PTCLDY    59  38  45 W10       29.88S
PHILADELPHIA   MOCLDY    61  38  42 W6        29.87R
WILDWOOD NJ*   PTCLDY    61  46  59 W8        29.88S
ATLANTIC CITY  PTCLDY    56  45  66 W6        29.85R
HENDERSON NC   PTCLDY    51  49  93 CALM      29.98S
GREENSBORO     MOCLDY    56  41  57 CALM      29.99R
ROCKY MOUNT    CLEAR     51  48  89 CALM      29.97S
FAYETTEVILLE   PTCLDY    54  50  86 CALM      29.98R
CHARLOTTE      PTCLDY    54  44  69 W3        30.01R
$$

VAZ100-250200-
MARINE

STATION/POSITION TIME  TEMP    WIND        PRES    WAVE   SWELL
                       AIR SEA DIR/SP/G            HT/PER HT/PER
                 (UTC) (F)     (DEG/KT/KT) (MB)    (FT/S) (FT/S)
44066 TX TWR #4  0100   60 66  330/ 12/ 14 1009.3R   5/ 5   3/ 6
CAPE MAY NJ      0100   62 64  280/ 12/ 15 1010.8F
LEWES DE         0100   60 60  270/ 10/ 12 1011.5S
15NM E FENWICK I 0100   63 64  260/ 16/ 19 1011.2R   3/10   2/10
OCEAN-CITY-INLET 0100   58 62  300/  7/  9 1011.7S
WACHAPREAGUE VA  0100   55 61  230/  2/  2 1013.1R
THOMAS POINT MD  0100   60 62  300/ 11/ 13 1014.1R
GOOSES REEF MD   0100   62     310/ 12/ 14 1013.4S
COVE POINT MD    0100   60     310/  9/ 12 1013.1S
SOLOMONS ISLAND  0100      63                N/A
BISHOPS HEAD MD  0100   61 58  300/  7/  7 1012.6R
PINEY POINT MD   0100          310/ 10/ 12   N/A
POTOMAC MD       0100   63     310/ 12/ 14 1012.5R
CAMBRIDGE MD     0100   59 60  260/  5/  7 1012.6S
LEWISETTA VA     0100   59 60  300/  6/  7 1013.0R
RAPPAHANNOCK LGT 0100          290/ 13/ 14 1013.7S
STINGRAY PT      0100   62     290/  6/  8 1014.1S
YORK RVR RNG VA  0100   61     300/  6/  7 1013.2S
YORKTOWN VA      0100   60 64  290/  5/  6 1013.4R
JAMESTOWN VA     0100   60     330/  2/  6   N/A
DOMINION TERM VA 0100   62     310/  8/  9 1013.7R
KIPTOPEKE VA     0100      66  320/ 11/ 13   N/A
CHES BAY BRIDGE  0100   64 65  280/  9/ 11 1013.3R
CHESAPEAKE LGHT  0000   65     300/ 16/ 17 1014.0R
WILLOUBY STN VA  0100   62     300/  7/  8 1012.5S
S CRANEY ISL VA  0100          260/  5/  7 1013.5R
CAPE HENRY BUOY  0100      67                N/A     3/ 6
1ST LANDING BUOY 0100   65     290/ 12/ 14 1013.3S
CAPE CHARLES BUO 0100      66                N/A     2/10   2/10
64NM E OF VA BCH 0100   66 66  310/ 16/ 17 1012.4S   4/ 9   3/ 9
DUCK PIER NC     0100   62 66  290/  7/  9 1013.0R
44100 DUCK FRF   0100      67                N/A     4/10   2/11
44056 DUCK FRF   0100                        N/A     3/10   2/11
OREGON INLET NC  0100   60 64  290/  5/  7 1013.8S
HATTERAS NC      0100   65 65  310/  9/ 10 1014.7R
DIAMOND SHLS NC  0100   66     300/ 12/ 16 1014.2R   4/10   3/10
CAPE LOOKOUT NC  0000   67     310/  8/ 10 1014.6R
$$




U.S. Dept. of Commerce
NOAA National Weather Service
1325 East West Highway
Silver Spring, MD 20910
E-mail: w-nws.webmaster@noaa.gov
Page last modified: May 16, 2007
NATIONAL WEATHER SERVICE: for Safety, for Work, for Fun - FOR LIFE